• In Belarus
  • List of Countries
  • For 7 days
  • Water Temperature
  • Weather Map
  • Weather Widgets
  • user-avatar
    Login

    Hourly Weather Akshi

    Today, 18 January, Saturday

    Time Temperature Precipitation Wind Pressure Humidity
    00:00 -12°C° 0 mm 5 mps 729 mmHg 87%
    01:00 -13°C° 0 mm 5 mps 729 mmHg 86%
    02:00 -13°C° 0 mm 5 mps 728 mmHg 86%
    03:00 -13°C° 0 mm 5 mps 728 mmHg 84%
    04:00 -13°C° 0 mm 5 mps 728 mmHg 83%
    05:00 -13°C° 0 mm 5 mps 727 mmHg 81%
    06:00 -13°C° 0 mm 5 mps 727 mmHg 80%
    07:00 -13°C° 0 mm 5 mps 727 mmHg 78%
    08:00 -13°C° 0 mm 5 mps 727 mmHg 77%
    09:00 -12°C° 0 mm 5 mps 727 mmHg 75%
    10:00 -10°C° 0 mm 6 mps 726 mmHg 73%
    11:00 -9°C° 0 mm 6 mps 726 mmHg 72%
    12:00 -8°C° 0 mm 6 mps 725 mmHg 72%
    13:00 -7°C° 0 mm 5 mps 725 mmHg 72%
    14:00 -6°C° 0 mm 5 mps 724 mmHg 73%
    15:00 -8°C° 0 mm 5 mps 724 mmHg 73%
    16:00 -9°C° 0 mm 4 mps 724 mmHg 73%
    17:00 -11°C° 0 mm 4 mps 723 mmHg 72%
    18:00 -10°C° 0 mm 3 mps 723 mmHg 72%
    19:00 -12°C° 0 mm 3 mps 723 mmHg 72%
    20:00 -12°C° 0 mm 3 mps 722 mmHg 71%
    21:00 -13°C° 0 mm 3 mps 722 mmHg 71%
    22:00 -13°C° 0 mm 3 mps 722 mmHg 71%
    23:00 -13°C° 0 mm 3 mps 721 mmHg 71%

    Tomorrow, 19 January, Sunday

    Time Temperature Precipitation Wind Pressure Humidity
    00:00 -12°C° 0 mm 2 mps 721 mmHg 71%
    01:00 -12°C° 0 mm 2 mps 720 mmHg 71%
    02:00 -12°C° 0 mm 2 mps 720 mmHg 71%
    03:00 -13°C° 0 mm 2 mps 719 mmHg 72%
    04:00 -13°C° 0 mm 2 mps 719 mmHg 72%
    05:00 -13°C° 0 mm 2 mps 719 mmHg 73%
    06:00 -13°C° 0 mm 2 mps 719 mmHg 74%
    07:00 -13°C° 0 mm 2 mps 719 mmHg 75%
    08:00 -13°C° 0 mm 2 mps 719 mmHg 76%
    09:00 -10°C° 0 mm 2 mps 719 mmHg 75%
    10:00 -8°C° 0 mm 2 mps 719 mmHg 75%
    11:00 -6°C° 0 mm 2 mps 719 mmHg 74%
    12:00 -6°C° 0 mm 2 mps 719 mmHg 75%
    13:00 -5°C° 0 mm 2 mps 718 mmHg 75%
    14:00 -3°C° 0 mm 1 mps 718 mmHg 76%
    15:00 -4°C° 0 mm 1 mps 718 mmHg 77%
    16:00 -7°C° 0 mm 1 mps 718 mmHg 78%
    17:00 -9°C° 0 mm 1 mps 718 mmHg 80%
    18:00 -8°C° 0 mm 1 mps 718 mmHg 77%
    19:00 -9°C° 0 mm 2 mps 719 mmHg 74%
    20:00 -9°C° 0 mm 2 mps 719 mmHg 71%
    21:00 -9°C° 0 mm 2 mps 719 mmHg 68%
    22:00 -8°C° 0 mm 2 mps 719 mmHg 65%
    23:00 -7°C° 0 mm 2 mps 719 mmHg 62%

    Day after tomorrow, 20 January, Monday

    Time Temperature Precipitation Wind Pressure Humidity
    00:00 -7°C° 0 mm 2 mps 719 mmHg 61%
    01:00 -7°C° 0 mm 2 mps 719 mmHg 59%
    02:00 -6°C° 0 mm 2 mps 719 mmHg 58%
    03:00 -6°C° 0 mm 2 mps 719 mmHg 59%
    04:00 -6°C° 0 mm 2 mps 719 mmHg 60%
    05:00 -6°C° 0 mm 2 mps 719 mmHg 61%
    06:00 -5°C° 0 mm 2 mps 720 mmHg 62%
    07:00 -3°C° 0 mm 1 mps 720 mmHg 63%
    08:00 -3°C° 0 mm 1 mps 720 mmHg 65%
    09:00 -2°C° 0 mm 1 mps 720 mmHg 68%
    10:00 -3°C° 0 mm 2 mps 721 mmHg 71%
    11:00 -1°C° 0 mm 2 mps 721 mmHg 74%
    12:00 -1°C° 0 mm 2 mps 721 mmHg 79%
    13:00 -1°C° 0 mm 2 mps 721 mmHg 84%
    14:00 -1°C° 0 mm 2 mps 721 mmHg 89%
    15:00 0°C° 0 mm 1 mps 721 mmHg 88%
    16:00 0°C° 0 mm 1 mps 721 mmHg 88%
    17:00 -1°C° 0 mm 1 mps 721 mmHg 87%
    18:00 -2°C° 0 mm 1 mps 721 mmHg 87%
    19:00 -2°C° 0 mm 1 mps 721 mmHg 87%
    20:00 -3°C° 0 mm 1 mps 721 mmHg 87%
    21:00 -3°C° 0 mm 1 mps 721 mmHg 85%
    22:00 -5°C° 0 mm 2 mps 721 mmHg 83%
    23:00 -6°C° 0 mm 2 mps 721 mmHg 81%

    21 January, Tuesday

    Time Temperature Precipitation Wind Pressure Humidity
    00:00 -6°C° 0 mm 2 mps 721 mmHg 80%
    01:00 -6°C° 0 mm 2 mps 721 mmHg 79%
    02:00 -7°C° 0 mm 2 mps 721 mmHg 79%
    03:00 -7°C° 0 mm 2 mps 721 mmHg 80%
    04:00 -7°C° 0 mm 2 mps 721 mmHg 81%
    05:00 -8°C° 0 mm 2 mps 721 mmHg 82%
    06:00 -9°C° 0 mm 3 mps 721 mmHg 83%
    07:00 -8°C° 0 mm 3 mps 721 mmHg 84%
    08:00 -8°C° 0 mm 3 mps 721 mmHg 85%
    09:00 -7°C° 0 mm 3 mps 721 mmHg 85%
    10:00 -7°C° 0 mm 4 mps 721 mmHg 86%
    11:00 -5°C° 0 mm 4 mps 721 mmHg 86%
    12:00 -5°C° 0 mm 4 mps 721 mmHg 86%
    13:00 -5°C° 0 mm 3 mps 720 mmHg 86%
    14:00 -4°C° 0 mm 3 mps 720 mmHg 85%
    15:00 -5°C° 0 mm 3 mps 720 mmHg 85%
    16:00 -6°C° 0 mm 3 mps 720 mmHg 85%
    17:00 -5°C° 0 mm 2 mps 720 mmHg 85%
    18:00 -5°C° 0 mm 2 mps 721 mmHg 84%
    19:00 -6°C° 0 mm 2 mps 721 mmHg 82%
    20:00 -6°C° 0 mm 2 mps 721 mmHg 81%
    21:00 -5°C° 0 mm 2 mps 721 mmHg 81%
    22:00 -5°C° 0 mm 2 mps 721 mmHg 81%
    23:00 -5°C° 0 mm 2 mps 721 mmHg 80%

    22 January, Wednesday

    Time Temperature Precipitation Wind Pressure Humidity
    00:00 -5°C° 0 mm 2 mps 721 mmHg 80%
    01:00 -3°C° 0 mm 1 mps 721 mmHg 80%
    02:00 -3°C° 0 mm 1 mps 721 mmHg 79%
    03:00 -3°C° 0 mm 1 mps 722 mmHg 81%
    04:00 -3°C° 0 mm 1 mps 722 mmHg 82%
    05:00 -3°C° 0 mm 1 mps 722 mmHg 83%
    06:00 -2°C° 0 mm 1 mps 723 mmHg 85%
    07:00 -2°C° 0 mm 1 mps 723 mmHg 87%
    08:00 -2°C° 0 mm 1 mps 724 mmHg 89%
    09:00 -1°C° 0 mm 1 mps 724 mmHg 89%
    10:00 0°C° 0 mm 1 mps 724 mmHg 89%
    11:00 0°C° 0 mm 1 mps 724 mmHg 89%
    12:00 0°C° 0.2 mm 1 mps 724 mmHg 91%
    13:00 +1°C° 0.2 mm 1 mps 724 mmHg 93%
    14:00 -1°C° 0.2 mm 2 mps 724 mmHg 95%
    15:00 0°C° 0.1 mm 1 mps 724 mmHg 92%
    16:00 -1°C° 0.1 mm 1 mps 725 mmHg 90%
    17:00 -2°C° 0.1 mm 1 mps 725 mmHg 87%
    18:00 -3°C° 0 mm 1 mps 725 mmHg 87%
    19:00 -5°C° 0 mm 2 mps 725 mmHg 86%
    20:00 -6°C° 0 mm 2 mps 725 mmHg 85%
    21:00 -6°C° 0 mm 2 mps 725 mmHg 87%
    22:00 -8°C° 0 mm 3 mps 724 mmHg 89%
    23:00 -8°C° 0 mm 3 mps 724 mmHg 90%

    23 January, Thursday

    Time Temperature Precipitation Wind Pressure Humidity
    00:00 -9°C° 0 mm 4 mps 724 mmHg 88%
    01:00 -9°C° 0 mm 4 mps 724 mmHg 87%
    02:00 -10°C° 0 mm 4 mps 724 mmHg 85%
    03:00 -10°C° 0 mm 5 mps 723 mmHg 83%
    04:00 -10°C° 0 mm 5 mps 723 mmHg 80%
    05:00 -10°C° 0 mm 6 mps 723 mmHg 78%
    06:00 -10°C° 0 mm 6 mps 723 mmHg 78%
    07:00 -10°C° 0 mm 5 mps 723 mmHg 78%
    08:00 -10°C° 0 mm 5 mps 723 mmHg 78%
    09:00 -8°C° 0 mm 5 mps 723 mmHg 79%
    10:00 -7°C° 0 mm 5 mps 723 mmHg 79%
    11:00 -6°C° 0 mm 5 mps 723 mmHg 79%
    12:00 -6°C° 0 mm 5 mps 722 mmHg 79%
    13:00 -5°C° 0 mm 5 mps 722 mmHg 79%
    14:00 -5°C° 0 mm 5 mps 721 mmHg 79%
    15:00 -6°C° 0 mm 5 mps 721 mmHg 78%
    16:00 -8°C° 0 mm 6 mps 721 mmHg 77%
    17:00 -9°C° 0 mm 6 mps 721 mmHg 76%
    18:00 -9°C° 0 mm 6 mps 721 mmHg 74%
    19:00 -9°C° 0 mm 6 mps 721 mmHg 72%
    20:00 -9°C° 0 mm 7 mps 721 mmHg 71%
    21:00 -9°C° 0 mm 7 mps 720 mmHg 69%
    22:00 -9°C° 0 mm 7 mps 720 mmHg 68%
    23:00 -10°C° 0 mm 8 mps 719 mmHg 67%
    Show more